Regional Weather Roundup
Issued by NWS Wakefield, VA

Home | Current Version | Previous Version | Graphics & Text | Print | Product List | Glossary On
Versions: 1 2 3 4 5 6 7 8 9 10 11 12 13 14 15 16 17 18 19 20 21 22 23 24 25 26 27 28 29 30 31 32 33 34 35 36 37 38 39 40 41 42 43 44 45 46 47 48 49 50
000
ASUS41 KAKQ 051515
RWRAKQ

REGIONAL WEATHER ROUNDUP
NATIONAL WEATHER SERVICE WAKEFIELD VA
1000 AM EST MON DEC 05 2016

Note: "fair" indicates few or no clouds below 12,000 feet with no
significant weather and/or obstructions to visibility. * = Denotes
station may not report precipitation (e.g., rain,snow,etc.),
thunder or fog.

VAZ042-051-052>054-056-051600-
NORTHERN VIRGINIA

CITY           SKY/WX    TMP DP  RH WIND       PRES   REMARKS
WASH NATIONAL  PTSUNNY   46  41  82 W3        30.04S
DULLES         CLOUDY    42  39  89 CALM      30.03R
FORT BELVOIR   NOT AVBL
QUANTICO       CLOUDY    43  40  89 CALM      30.05R
FREDERICKSBRG* CLOUDY    42  42 100 NW6       30.03R
STAFFORD*      CLOUDY    40  40 100 NW5       30.08R
WARRENTON      CLOUDY    42  37  83 CALM      30.03R
CULPEPER*      CLOUDY    42  40  96 CALM      30.05R
MANASSAS*      CLOUDY    43  41  93 CALM      30.04R
LEESBURG*      CLOUDY    43  43 100 MISG      30.04R
WINCHESTER     CLOUDY    41  37  87 CALM      30.02R
FRONT ROYAL*   PTSUNNY   46  41  81 S3        30.00R
LURAY*         PTSUNNY   46  43  87 CALM      30.01R
$$

VAZ048-049-060>072-079>083-051600-
CENTRAL AND SOUTH CENTRAL VIRGINIA

CITY           SKY/WX    TMP DP  RH WIND       PRES   REMARKS
RICHMOND       CLOUDY    43  40  89 NW7       30.02R FOG
CHESTERFIELD*  CLOUDY    43  28  56 NW5       30.03R
PETERSBURG*    PTSUNNY   42  40  94 W5        30.03R
HANOVER        CLOUDY    42  38  85 NW6       30.04R
TAPPAHANNOCK*  CLOUDY    42  42 100 W3        30.03S FOG
QUINTON*       CLOUDY    41  41 100 NW7       30.02R FOG
CHARLOTTSVILLE CLOUDY    42  39  89 CALM      30.02R FOG
GORDONSVILLE*  CLOUDY    41  40  99 CALM      30.02R
ORANGE*          N/A     41  41 100 CALM      30.04R
LOUISA*        FOG       45  43  93 NW6       30.01R VSB 3/4
BUMPASS*       CLOUDY    40  40 100 CALM      30.02S
FARMVILLE*     FOG       42  42 100 S3        30.02R VSB 3/4
CREWE*         CLOUDY    41  41 100 NW5       30.02R
FORT PICKETT*  CLOUDY   N/A N/A N/A NW6       30.03R
CHASE CITY*    CLOUDY    41  40  95 NW3       30.04R
CLARKSVILLE*   CLOUDY    41  41 100 SW3       30.04R
SOUTH HILL*    CLOUDY    43  42  98 CALM      30.09R
LAWRENCEVILLE* CLOUDY    43  42  97 CALM      30.03R
EMPORIA*       CLOUDY    43  43 100 SW3       30.05R
$$

VAZ088>098-051600-
SOUTHEAST VIRGINIA

CITY           SKY/WX    TMP DP  RH WIND       PRES   REMARKS
NORFOLK        CLOUDY    50  47  89 N8        29.99R
VIRGINIA BEACH CLOUDY    50  48  93 N7        29.98R
NORFOLK NAVAL  CLOUDY    50  47  89 NW7       30.01R
WEST POINT*    CLOUDY    44  44  99 W3        30.05R
SALUDA*        CLOUDY    43  43 100 W3        30.02R
NEWPORT NEWS   CLOUDY    46  45  96 NW6       30.01R FOG
LANGLEY AFB    NOT AVBL
FORT EUSTIS    NOT AVBL
WILLIAMSBURG*  CLOUDY    48  48 100 CALM      30.03R
HR EXEC AP*    CLOUDY    48  45  87 CALM      29.99R
FRANKLIN*      CLOUDY    45  44  95 NW3       30.02R
US460-WAKEFLD  PTSUNNY   45  43  93 VRB3      30.02R
$$

VAZ020-022-025-037-045-051600-
WEST CENTRAL AND SOUTHWEST VIRGINIA

CITY           SKY/WX    TMP DP  RH WIND       PRES   REMARKS
STAUNTON*      SUNNY     42  40  91 CALM      30.02R
WAYNESBORO*    FAIR      49  38  67 W6        30.00R
HOT SPRINGS VA PTSUNNY   39  37  93 NW12G25   29.96R
LYNCHBURG      FOG       39  39 100 S5        30.03R VSB 1/4
DANVILLE       CLOUDY    42  42 100 CALM      30.04R FOG
SOUTH BOSTON*  CLOUDY    42  40  95 CALM      30.05R
MARTINSVILLE   FOG       40  40  97 CALM      30.05S VSB 1/4
ROANOKE        MOSUNNY   48  42  80 SW3       30.05R
BLACKSBURG     CLOUDY    47  38  71 NW10      30.06R
DUBLIN*        CLOUDY    47  39  73 NW8       30.06R
MARION*        CLOUDY    46  45  95 W3        30.07R
HILLSVILLE*    CLOUDY    45  40  83 N13G22    30.01R
RICHLANDS*     CLOUDY    43  41  94 N5        30.05R
WISE*          CLOUDY    43  43 100 CALM      30.07R
ABINGDON*      CLOUDY    48  46  93 CALM      30.07R
$$

MDZ021>025-VAZ099-100-051600-
SOUTHERN MARYLAND AND THE DELMARVA PENINSULA

CITY           SKY/WX    TMP DP  RH WIND       PRES   REMARKS
PATUXENT RIVER PTSUNNY   46  42  86 NW7       30.02S
BAY BRIDGE APT CLOUDY    43  41  93 W6        30.04R
LEONARDTOWN    CLOUDY    43  41  93 W5        30.04S
DOVER          NOT AVBL
GEORGETOWN     CLOUDY    45  43  93 W8        30.02F
EASTON         CLOUDY    46  41  81 W5        30.07R
CAMBRIDGE      CLOUDY    43  41  93 W3        30.02S
SALISBURY      CLOUDY    45  45 100 NW7       30.02S
OCEAN CITY     CLOUDY    46  44  93 NW9       30.01F
WALLOPS ISLAND CLOUDY    45  45 100 NW6       30.02R
ACCOMACK*      CLOUDY    47  47  98 NW6       30.01R FOG
$$

NCZ012>017-030>032-051600-
NORTH CENTRAL AND EASTERN NORTH CAROLINA

CITY           SKY/WX    TMP DP  RH WIND       PRES   REMARKS
ROANOKE RAPIDS CLOUDY    45  43  93 CALM      30.03R
RALEIGH        PTSUNNY   47  44  90 CALM      30.04R
ELIZABETH CITY CLOUDY    50  48  93 NW6       29.99R
AHOSKIE*       CLOUDY    44  43  97 CALM      30.03R
EDENTON*       PTSUNNY   50  47  92 CALM      30.01R
CURRITUCK*     CLOUDY    50  50 100 N5        29.99S
KILL DEVIL HLS CLOUDY    52  52 100 N9G20     29.96R
MANTEO         CLOUDY    51  51 100 N12G17    29.96R
CAPE HATTERAS  CLOUDY    53  52  96 VRB6      29.96R
TARBORO*       NOT AVBL
GOLDSBORO      NOT AVBL
WASHINGTON     PTSUNNY   48  45  91 NW6       30.02R
GREENVILLE     CLOUDY    46  46 100 N3        30.04R
NEW BERN       CLOUDY    48  46  93 N9        30.01S
WILMINGTON     CLOUDY    50  49  96 NW8       30.02R
$$

VAZ048-051600-
ELSEWHERE

CITY           SKY/WX    TMP DP  RH WIND       PRES   REMARKS
HARRISBURG PA  CLOUDY    42  40  92 VRB3      30.01R
BALTIMORE      PTSUNNY   45  42  89 W7        30.03R
ANNAPOLIS      CLOUDY    45  41  86 NW3       30.03R
ANDREWS AFB    NOT AVBL
PHILADELPHIA   CLOUDY    44  40  85 W12       30.04R
HENDERSON NC   CLOUDY    43  40  91 CALM      30.04R
GREENSBORO     MOSUNNY   48  44  86 CALM      30.02R
ROCKY MOUNT    CLOUDY    47  46  97 W3        30.03R
$$

VAZ100-051600-
MARINE

STATION/POSITION TIME  TEMP    WIND        PRES    WAVE   SWELL
                       AIR SEA DIR/SP/G            HT/PER HT/PER
                 (UTC) (F)     (DEG/KT/KT) (MB)    (FT/S) (FT/S)
BRANDYWINE LGT   1436   43     280/ 12/ 15   N/A
CAPE MAY NJ      1436   45 48  300/  8/ 10 1016.5R
LEWES DE         1436   43 49  300/ 10/ 12 1016.7R
OCEAN-CITY-INLET 1436   44 50  350/  9/ 10 1016.7R
WACHAPREAGUE VA  1436   47 48  330/  1/  3 1015.7R
THOMAS POINT MD  1500   43 49  300/  6/  8   N/A
GOOSES REEF MD   1450   44     260/  6/  8 1017.4S
COVE POINT MD    1436   43     320/  4/  6 1017.2S
SOLOMONS ISLAND  1436   45 51  280/  4/  6   N/A
BISHOPS HEAD MD  1436   45 45  310/  8/  9 1016.9R
PINEY POINT MD   1436          320/  7/  8   N/A
POTOMAC MD       1450   44     350/ 10/ 12 1015.6R
CAMBRIDGE MD     1436   44 47  290/  6/ 10 1016.1F
LEWISETTA VA     1436   43 48  320/  5/  7 1016.4R
RAPPAHANNOCK LGT 1436          330/  8/  9 1016.4R
STINGRAY PT      1450   44     340/  6/  8 1016.7R
YORK RVR RNG VA  1436   45     340/  8/  9 1015.5R
YORKTOWN VA      1436   45 51  320/  8/  9 1015.7R
JAMESTOWN VA     1450   44     300/  6/  8   N/A
DOMINION TERM VA 1436   47     320/  6/  8 1015.7R
KIPTOPEKE VA     1436      52   10/  4/  6   N/A
CHES BAY BRIDGE  1436   49 54  360/  6/  7 1015.1R
CAPE HENRY VA    1436   49     330/  7/  7   N/A
WILLOUBY STN VA  1436   47     350/  6/  7 1016.5R
S CRANEY ISL VA  1436   48     340/  4/  5 1015.2R
CAPE HENRY BUOY  1442      56                N/A     3/ 8
1ST LANDING BUOY 1450   49                 1015.4R
CAPE CHARLES BUO 1456      55                N/A     2/10
OFFSHORE WE BUOY 1451      56                N/A     3/ 8
64NM E OF VA BCH 1450   56 60   10/ 21/ 25 1013.2R   4/ 4   2/ 8
DUCK PIER NC     1436   52 54   10/ 17/ 20 1014.2R
44100 DUCK FRF   1435      56                N/A     4/ 4
OREGON INLET NC  1436   54 56  340/ 12/ 16 1014.2R
HATTERAS NC      1436   53 60  330/ 17/ 21 1014.0R
DIAMOND SHLS NC  1450   60 74  340/ 19/ 25 1013.2R   6/ 7   5/ 7
CAPE LOOKOUT NC  1400   57     330/ 16/ 19 1013.8R
$$



USA.gov is the U.S. government's official web portal to all federal, state and local government web resources and services.